Retour au catalogue

SL-8 DEB *

ActifLEO
NORAD 3931·DEBRIS·🇷🇺 Russia

Lancé Mar 15, 1965 depuis Baikonur Cosmodrome

Loading…

Prochains Passages (prochaines 24 heures)

TLE

FraisSource: Space-Track

Époque: Sep 14, 2026, 15:41 UTC

1 03931U 65020EV  26257.65349666 -.00000034  00000-0  42695-3 0  9993
2 03931  56.0658 347.1902 0190752 201.4108 309.5995 12.35218781788218

Suivez SL-8 DEB * en temps réel avec AllMySat

Download on the App Store